Weather in Lokhvitsy

Russia / Amur Oblast     50°44′07″N   128°12′45″E
temp.,
°C
wind,
m/s
gust,
m/s
humid.,
%
clouds,
%
prec.,
mm/h
press.,
hPa
HPBL,
m
15 april, thu
thu1500:00−3wsw224299 0.0 100927
03:00−3w1140100 0.0 100910
06:00−4n11405 0.0 101010
09:00+1sw22285 0.0 1010476
12:00+5wsw34258 0.0 10101903
15:00+7ssw1224100 0.0 10091978
18:00+6se3227100 0.0 1010842
21:00+3se3536100 0.0 101292
16 april, fri
fri1600:00+2ese3539100 0.0 1012100
03:00+2e4945100 0.0 1011232
06:00+1e41051100 0.3 1011393
09:00+1ene71392100 1.8 1011728
12:00+2ne71193100 2.6 1011726
15:00+3ne61195100 4.2 1011692
18:00+3ne71181100 0.2 1011711
21:00+2ne61383100 0.3 1011489
17 april, sat
sat1700:00+1nne61298100 2.9 1011461
03:000n61198100 5.4 1011372
06:000nne5997100 0.6 1011346
09:00+1nne4888100 0.8 1013387
12:00+6nne34587 0.0 1012817
15:00+9nnw12425 0.0 10111125
18:00+9ssw34505 0.0 1011172
21:00+4ssw36830 0.0 101296
18 april, sun
sun1800:00+2ssw36850 0.0 101293
03:00+1s47890 0.0 1011117
06:00+1s37850 0.0 1011110
09:00+7s58570 0.0 1010401
12:00+11ssw67435 0.0 1009862
15:00+14ssw454133 0.0 10071153
18:00+14sse454525 0.0 1007195
21:00+10se456276 0.0 100960
19 april, mon
mon1900:00+8nne5125999 0.0 1011274
03:00+4nne51163100 0.0 1012311
06:00+3nne3759100 0.0 1013193
09:00+7ne11375 0.0 1012303
12:00+13sw35345 0.0 1010747
15:00+16sw56365 0.0 10081303
18:00+14nw9124976 0.1 1008850
21:00+9n5106598 0.5 1012993